Regional Weather Roundup
Issued by NWS

Home | Current Version | Previous Version | Graphics & Text | Print | Product List | Glossary On
Versions: 1 2 3 4 5 6 7 8 9 10 11 12 13 14 15 16 17 18 19 20 21 22 23 24 25 26 27 28 29 30 31 32 33 34 35 36 37 38 39 40 41 42 43 44 45 46 47 48 49 50
000
ASUS43 KOAX 300202
RWRNE

WEATHER ROUNDUP FOR NEBRASKA
NATIONAL WEATHER SERVICE OMAHA NE
900 PM CDT WED JUL 29 2015

NOTES: SATELLITE DATA IS BEING USED TO AUGMENT CLOUD COVER ABOVE
       12000 FEET.
       "FAIR" INDICATES FEW OR NO CLOUDS BELOW 12,000 FEET WITH NO
       SIGNIFICANT WEATHER AND/OR OBSTRUCTIONS TO VISIBILITY.

  * THESE STATIONS DO NOT REPORT WEATHER SUCH AS RAIN...SNOW OR FOG.

NEZ001>004-019>022-054>056-300300-
NEBRASKA PANHANDLE

CITY           SKY/WX    TMP DP  RH WIND       PRES   REMARKS
SCOTTSBLUFF    PTCLDY    79  53  40 SE7       30.19R
ALLIANCE       CLEAR     73  53  49 S8        30.19R
CHADRON        CLEAR     76  51  41 NE7       30.17R
KIMBALL        PTCLDY    75  46  34 SE14      30.25R
SIDNEY         PTCLDY    74  45  35 S13       30.25R
$$

NEZ057>060-069>072-079>082-300300-
SOUTHWEST NEBRASKA

CITY           SKY/WX    TMP DP  RH WIND       PRES   REMARKS
NORTH PLATTE   CLEAR     70  58  65 SE5       30.21S
IMPERIAL       CLEAR     72  44  36 S7        30.23R
MCCOOK         CLEAR     74  55  51 E6        30.21R
$$

NEZ005>010-023>029-035>040-094-300300-
NORTH CENTRAL NEBRASKA

CITY           SKY/WX    TMP DP  RH WIND       PRES   REMARKS
VALENTINE      MOCLDY    79  52  38 S6        30.15S
AINSWORTH      CLEAR     73  55  52 S6        30.17R
BROKEN BOW     CLEAR     71  59  65 CALM      30.20S
ORD            CLEAR     71  56  58 SW7       30.16S
$$

NEZ041-046>049-061>064-073>077-083>087-300300-
SOUTH CENTRAL NEBRASKA

CITY           SKY/WX    TMP DP  RH WIND       PRES   REMARKS
GRAND ISLAND   CLEAR     72  56  57 S5        30.19S
AURORA         CLEAR     70  60  70 S5        30.18S
HASTINGS       CLEAR     74  55  51 CALM      30.20S
KEARNEY *      CLEAR     72  57  60 SE6       30.21R
$$

NEZ011>018-030>034-042>045-300300-
NORTHEAST NEBRASKA

CITY           SKY/WX    TMP DP  RH WIND       PRES   REMARKS
NORFOLK        CLEAR     74  59  59 S9        30.13S
BLAIR          CLEAR     71  62  73 SW5       30.15S
COLUMBUS *     CLEAR     73  57  56 SW6       30.15S
FREMONT        CLEAR     75  60  59 SW5       30.14S
TEKAMAH        CLEAR     72  68  87 S7        30.12S
$$

NEZ050>053-065>068-078-088>093-300300-
SOUTHEAST NEBRASKA

CITY           SKY/WX    TMP DP  RH WIND       PRES   REMARKS
LINCOLN        CLEAR     78  57  48 SW3       30.16S
OMAHA EPPLEY   PTCLDY    78  57  48 SW5       30.13S
FALLS CITY     PTCLDY    76  67  73 CALM      30.15R
$$

NEZ044-045-051>053-067-300300-
OMAHA AREA

CITY           SKY/WX    TMP DP  RH WIND       PRES   REMARKS
OMAHA EPPLEY   PTCLDY    78  57  48 SW5       30.13S
BLAIR          CLEAR     71  62  73 SW5       30.15S
FREMONT        CLEAR     75  60  59 SW5       30.14S
OFFUTT AFB     CLEAR     75  62  64 SW5       30.13S
$$


USA.gov is the U.S. government's official web portal to all federal, state and local government web resources and services.